Time,TemperatureF,DewpointF,PressureIn,WindDirection,WindDirectionDegrees,WindSpeedMPH,WindSpeedGustMPH,Humidity,HourlyPrecipIn,Conditions,Clouds,dailyrainin,SoftwareType,DateUTC
2013-01-01 00:02:00,38.0,-99.9,-100.00,SE,135,12.0,17.0,-999,-99.99,,,-99.99,,2013-01-01 08:02:00,
2013-01-01 00:12:00,38.0,-99.9,-100.00,SE,135,10.0,17.0,-999,-99.99,,,-99.99,,2013-01-01 08:12:00,
2013-01-01 00:22:00,38.0,-99.9,-100.00,SE,135,10.0,17.0,-999,-99.99,,,-99.99,,2013-01-01 08:22:00,
2013-01-01 00:32:00,38.0,-99.9,-100.00,SE,135,11.0,13.0,-999,-99.99,,,-99.99,,2013-01-01 08:32:00,
2013-01-01 00:42:00,38.0,-99.9,-100.00,SE,135,11.0,13.0,-999,-99.99,,,-99.99,,2013-01-01 08:42:00,
2013-01-01 00:54:00,38.0,-99.9,-100.00,SE,135,14.0,16.0,-999,-99.99,,,-99.99,,2013-01-01 08:54:00,
2013-01-01 01:02:00,38.0,-99.9,-100.00,SE,135,14.0,16.0,-999,-99.99,,,-99.99,,2013-01-01 09:02:00,
2013-01-01 01:12:00,38.0,-99.9,-100.00,SE,135,14.0,19.0,-999,-99.99,,,-99.99,,2013-01-01 09:12:00,
2013-01-01 01:22:00,38.0,-99.9,-100.00,SE,135,14.0,19.0,-999,-99.99,,,-99.99,,2013-01-01 09:22:00,
2013-01-01 01:32:00,38.0,-99.9,-100.00,SE,135,17.0,19.0,-999,-99.99,,,-99.99,,2013-01-01 09:32:00,
2013-01-01 01:43:00,38.0,-99.9,-100.00,SE,135,16.0,20.0,-999,-99.99,,,-99.99,,2013-01-01 09:43:00,
2013-01-01 01:53:00,38.0,-99.9,-100.00,SE,135,16.0,20.0,-999,-99.99,,,-99.99,,2013-01-01 09:53:00,
2013-01-01 02:02:00,38.0,-99.9,-100.00,SE,135,16.0,20.0,-999,-99.99,,,-99.99,,2013-01-01 10:02:00,
2013-01-01 02:12:00,38.0,-99.9,-100.00,SE,135,17.0,20.0,-999,-99.99,,,-99.99,,2013-01-01 10:12:00,
2013-01-01 02:22:00,38.0,-99.9,-100.00,SE,135,17.0,20.0,-999,-99.99,,,-99.99,,2013-01-01 10:22:00,
2013-01-01 02:33:00,37.0,-99.9,-100.00,SE,135,19.0,21.0,-999,-99.99,,,-99.99,,2013-01-01 10:33:00,
2013-01-01 02:43:00,37.0,-99.9,-100.00,SE,135,17.0,21.0,-999,-99.99,,,-99.99,,2013-01-01 10:43:00,
2013-01-01 02:53:00,37.0,-99.9,-100.00,SE,135,17.0,21.0,-999,-99.99,,,-99.99,,2013-01-01 10:53:00,
2013-01-01 03:02:00,37.0,-99.9,-100.00,SE,135,18.0,21.0,-999,-99.99,,,-99.99,,2013-01-01 11:02:00,
2013-01-01 03:12:00,37.0,-99.9,-100.00,SE,135,17.0,21.0,-999,-99.99,,,-99.99,,2013-01-01 11:12:00,
2013-01-01 03:23:00,37.0,-99.9,-100.00,SE,135,17.0,21.0,-999,-99.99,,,-99.99,,2013-01-01 11:23:00,
2013-01-01 03:33:00,37.0,-99.9,-100.00,SE,135,16.0,21.0,-999,-99.99,,,-99.99,,2013-01-01 11:33:00,
2013-01-01 03:43:00,37.0,-99.9,-100.00,SE,135,17.0,21.0,-999,-99.99,,,-99.99,,2013-01-01 11:43:00,
2013-01-01 03:53:00,37.0,-99.9,-100.00,SE,135,17.0,21.0,-999,-99.99,,,-99.99,,2013-01-01 11:53:00,
2013-01-01 04:03:00,37.0,-99.9,-100.00,SE,135,17.0,21.0,-999,-99.99,,,-99.99,,2013-01-01 12:03:00,
2013-01-01 04:12:00,37.0,-99.9,-100.00,SE,135,17.0,21.0,-999,-99.99,,,-99.99,,2013-01-01 12:12:00,
2013-01-01 04:22:00,37.0,-99.9,-100.00,SE,135,17.0,21.0,-999,-99.99,,,-99.99,,2013-01-01 12:22:00,
2013-01-01 04:33:00,37.0,-99.9,-100.00,SE,135,19.0,21.0,-999,-99.99,,,-99.99,,2013-01-01 12:33:00,
2013-01-01 04:43:00,37.0,-99.9,-100.00,SE,135,18.0,21.0,-999,-99.99,,,-99.99,,2013-01-01 12:43:00,
2013-01-01 04:53:00,37.0,-99.9,-100.00,SE,135,18.0,21.0,-999,-99.99,,,-99.99,,2013-01-01 12:53:00,
2013-01-01 05:03:00,37.0,-99.9,-100.00,SE,135,18.0,21.0,-999,-99.99,,,-99.99,,2013-01-01 13:03:00,
2013-01-01 05:12:00,37.0,-99.9,-100.00,SE,135,14.0,21.0,-999,-99.99,,,-99.99,,2013-01-01 13:12:00,
2013-01-01 05:22:00,37.0,-99.9,-100.00,SE,135,14.0,21.0,-999,-99.99,,,-99.99,,2013-01-01 13:22:00,
2013-01-01 05:33:00,37.0,-99.9,-100.00,SE,135,18.0,21.0,-999,-99.99,,,-99.99,,2013-01-01 13:33:00,
2013-01-01 05:43:00,37.0,-99.9,-100.00,SE,135,17.0,21.0,-999,-99.99,,,-99.99,,2013-01-01 13:43:00,
2013-01-01 05:53:00,36.0,-99.9,-100.00,SE,135,15.0,20.0,-999,-99.99,,,-99.99,,2013-01-01 13:53:00,
2013-01-01 06:03:00,36.0,-99.9,-100.00,SE,135,15.0,20.0,-999,-99.99,,,-99.99,,2013-01-01 14:03:00,
2013-01-01 06:12:00,36.0,-99.9,-100.00,SE,135,14.0,20.0,-999,-99.99,,,-99.99,,2013-01-01 14:12:00,
2013-01-01 06:23:00,36.0,-99.9,-100.00,SE,135,14.0,20.0,-999,-99.99,,,-99.99,,2013-01-01 14:23:00,
2013-01-01 06:33:00,36.0,-99.9,-100.00,SE,135,16.0,20.0,-999,-99.99,,,-99.99,,2013-01-01 14:33:00,
2013-01-01 06:43:00,36.0,-99.9,-100.00,SE,135,16.0,19.0,-999,-99.99,,,-99.99,,2013-01-01 14:43:00,
2013-01-01 06:53:00,36.0,-99.9,-100.00,SE,135,16.0,19.0,-999,-99.99,,,-99.99,,2013-01-01 14:53:00,
2013-01-01 07:03:00,35.0,-99.9,-100.00,SE,135,17.0,20.0,-999,-99.99,,,-99.99,,2013-01-01 15:03:00,
2013-01-01 07:13:00,35.0,-99.9,-100.00,SE,135,18.0,21.0,-999,-99.99,,,-99.99,,2013-01-01 15:13:00,
2013-01-01 07:22:00,35.0,-99.9,-100.00,SE,135,18.0,21.0,-999,-99.99,,,-99.99,,2013-01-01 15:22:00,
2013-01-01 07:33:00,35.0,-99.9,-100.00,SE,135,16.0,21.0,-999,-99.99,,,-99.99,,2013-01-01 15:33:00,
2013-01-01 07:43:00,35.0,-99.9,-100.00,SE,135,16.0,20.0,-999,-99.99,,,-99.99,,2013-01-01 15:43:00,
2013-01-01 07:53:00,35.0,-99.9,-100.00,SE,135,16.0,20.0,-999,-99.99,,,-99.99,,2013-01-01 15:53:00,
2013-01-01 08:03:00,35.0,-99.9,-100.00,SE,135,18.0,20.0,-999,-99.99,,,-99.99,,2013-01-01 16:03:00,
2013-01-01 08:12:00,35.0,-99.9,-100.00,SE,135,15.0,20.0,-999,-99.99,,,-99.99,,2013-01-01 16:12:00,
2013-01-01 08:23:00,35.0,-99.9,-100.00,SE,135,15.0,20.0,-999,-99.99,,,-99.99,,2013-01-01 16:23:00,
2013-01-01 08:33:00,35.0,-99.9,-100.00,SE,135,16.0,20.0,-999,-99.99,,,-99.99,,2013-01-01 16:33:00,
2013-01-01 08:43:00,35.0,-99.9,-100.00,SE,135,17.0,21.0,-999,-99.99,,,-99.99,,2013-01-01 16:43:00,
2013-01-01 08:53:00,35.0,-99.9,-100.00,SE,135,17.0,21.0,-999,-99.99,,,-99.99,,2013-01-01 16:53:00,
2013-01-01 09:03:00,36.0,-99.9,-100.00,SE,135,15.0,21.0,-999,-99.99,,,-99.99,,2013-01-01 17:03:00,
2013-01-01 09:12:00,36.0,-99.9,-100.00,SE,135,13.0,19.0,-999,-99.99,,,-99.99,,2013-01-01 17:12:00,
2013-01-01 09:23:00,36.0,-99.9,-100.00,SE,135,13.0,19.0,-999,-99.99,,,-99.99,,2013-01-01 17:23:00,
2013-01-01 09:33:00,37.0,-99.9,-100.00,SE,135,12.0,17.0,-999,-99.99,,,-99.99,,2013-01-01 17:33:00,
2013-01-01 09:43:00,37.0,-99.9,-100.00,SE,135,17.0,19.0,-999,-99.99,,,-99.99,,2013-01-01 17:43:00,
2013-01-01 09:53:00,37.0,-99.9,-100.00,SE,135,17.0,19.0,-999,-99.99,,,-99.99,,2013-01-01 17:53:00,
2013-01-01 10:03:00,37.0,-99.9,-100.00,SE,135,16.0,22.0,-999,-99.99,,,-99.99,,2013-01-01 18:03:00,
2013-01-01 10:13:00,38.0,-99.9,-100.00,SE,135,19.0,22.0,-999,-99.99,,,-99.99,,2013-01-01 18:13:00,
2013-01-01 10:23:00,38.0,-99.9,-100.00,SE,135,19.0,22.0,-999,-99.99,,,-99.99,,2013-01-01 18:23:00,
2013-01-01 10:33:00,38.0,-99.9,-100.00,SE,135,26.0,28.0,-999,-99.99,,,-99.99,,2013-01-01 18:33:00,
2013-01-01 10:43:00,39.0,-99.9,-100.00,SE,135,20.0,28.0,-999,-99.99,,,-99.99,,2013-01-01 18:43:00,
2013-01-01 10:53:00,39.0,-99.9,-100.00,SE,135,20.0,28.0,-999,-99.99,,,-99.99,,2013-01-01 18:53:00,
2013-01-01 11:02:00,40.0,-99.9,-100.00,SE,135,17.0,27.0,-999,-99.99,,,-99.99,,2013-01-01 19:02:00,
2013-01-01 11:12:00,40.0,-99.9,-100.00,SE,135,15.0,23.0,-999,-99.99,,,-99.99,,2013-01-01 19:12:00,
2013-01-01 11:22:00,40.0,-99.9,-100.00,SE,135,15.0,23.0,-999,-99.99,,,-99.99,,2013-01-01 19:22:00,
2013-01-01 11:33:00,41.0,-99.9,-100.00,SE,135,19.0,22.0,-999,-99.99,,,-99.99,,2013-01-01 19:33:00,
2013-01-01 11:43:00,41.0,-99.9,-100.00,SE,135,17.0,23.0,-999,-99.99,,,-99.99,,2013-01-01 19:43:00,
2013-01-01 11:53:00,42.0,-99.9,-100.00,SE,135,16.0,23.0,-999,-99.99,,,-99.99,,2013-01-01 19:53:00,
2013-01-01 12:02:00,42.0,-99.9,-100.00,SE,135,16.0,23.0,-999,-99.99,,,-99.99,,2013-01-01 20:02:00,
2013-01-01 12:13:00,43.0,-99.9,-100.00,SE,135,12.0,20.0,-999,-99.99,,,-99.99,,2013-01-01 20:13:00,
2013-01-01 12:23:00,43.0,-99.9,-100.00,SE,135,12.0,20.0,-999,-99.99,,,-99.99,,2013-01-01 20:23:00,
2013-01-01 12:33:00,43.0,-99.9,-100.00,SE,135,15.0,19.0,-999,-99.99,,,-99.99,,2013-01-01 20:33:00,
2013-01-01 12:43:00,44.0,-99.9,-100.00,SE,135,14.0,19.0,-999,-99.99,,,-99.99,,2013-01-01 20:43:00,
2013-01-01 12:53:00,44.0,-99.9,-100.00,SE,135,14.0,19.0,-999,-99.99,,,-99.99,,2013-01-01 20:53:00,
2013-01-01 13:03:00,44.0,-99.9,-100.00,SE,135,16.0,19.0,-999,-99.99,,,-99.99,,2013-01-01 21:03:00,
2013-01-01 13:13:00,44.0,-99.9,-100.00,SE,135,16.0,19.0,-999,-99.99,,,-99.99,,2013-01-01 21:13:00,
2013-01-01 13:22:00,44.0,-99.9,-100.00,SE,135,16.0,19.0,-999,-99.99,,,-99.99,,2013-01-01 21:22:00,
2013-01-01 13:33:00,44.0,-99.9,-100.00,SE,135,15.0,19.0,-999,-99.99,,,-99.99,,2013-01-01 21:33:00,
2013-01-01 13:43:00,44.0,-99.9,-100.00,SE,135,16.0,19.0,-999,-99.99,,,-99.99,,2013-01-01 21:43:00,
2013-01-01 13:53:00,45.0,-99.9,-100.00,SE,135,15.0,17.0,-999,-99.99,,,-99.99,,2013-01-01 21:53:00,
2013-01-01 14:03:00,45.0,-99.9,-100.00,SE,135,15.0,17.0,-999,-99.99,,,-99.99,,2013-01-01 22:03:00,
2013-01-01 14:13:00,45.0,-99.9,-100.00,SE,135,12.0,17.0,-999,-99.99,,,-99.99,,2013-01-01 22:13:00,
2013-01-01 14:23:00,45.0,-99.9,-100.00,SE,135,12.0,17.0,-999,-99.99,,,-99.99,,2013-01-01 22:23:00,
2013-01-01 14:33:00,45.0,-99.9,-100.00,SE,135,13.0,17.0,-999,-99.99,,,-99.99,,2013-01-01 22:33:00,
2013-01-01 14:43:00,45.0,-99.9,-100.00,SE,135,14.0,16.0,-999,-99.99,,,-99.99,,2013-01-01 22:43:00,
2013-01-01 14:53:00,45.0,-99.9,-100.00,SE,135,14.0,16.0,-999,-99.99,,,-99.99,,2013-01-01 22:53:00,
2013-01-01 15:03:00,45.0,-99.9,-100.00,SE,135,13.0,16.0,-999,-99.99,,,-99.99,,2013-01-01 23:03:00,
2013-01-01 15:13:00,44.0,-99.9,-100.00,SE,135,17.0,20.0,-999,-99.99,,,-99.99,,2013-01-01 23:13:00,
2013-01-01 15:22:00,44.0,-99.9,-100.00,SE,135,17.0,20.0,-999,-99.99,,,-99.99,,2013-01-01 23:22:00,
2013-01-01 15:33:00,44.0,-99.9,-100.00,SE,135,16.0,20.0,-999,-99.99,,,-99.99,,2013-01-01 23:33:00,
2013-01-01 15:43:00,44.0,-99.9,-100.00,SE,135,19.0,21.0,-999,-99.99,,,-99.99,,2013-01-01 23:43:00,
2013-01-01 15:53:00,44.0,-99.9,-100.00,SE,135,19.0,21.0,-999,-99.99,,,-99.99,,2013-01-01 23:53:00,
2013-01-01 16:03:00,44.0,-99.9,-100.00,SE,135,19.0,23.0,-999,-99.99,,,-99.99,,2013-01-02 00:03:00,
2013-01-01 16:12:00,44.0,-99.9,-100.00,SE,135,18.0,24.0,-999,-99.99,,,-99.99,,2013-01-02 00:12:00,
2013-01-01 16:23:00,44.0,-99.9,-100.00,SE,135,18.0,24.0,-999,-99.99,,,-99.99,,2013-01-02 00:23:00,
2013-01-01 16:33:00,44.0,-99.9,-100.00,SE,135,20.0,24.0,-999,-99.99,,,-99.99,,2013-01-02 00:33:00,
2013-01-01 16:43:00,43.0,-99.9,-100.00,SE,135,21.0,24.0,-999,-99.99,,,-99.99,,2013-01-02 00:43:00,
2013-01-01 16:53:00,43.0,-99.9,-100.00,SE,135,21.0,24.0,-999,-99.99,,,-99.99,,2013-01-02 00:53:00,
2013-01-01 17:02:00,43.0,-99.9,-100.00,SE,135,21.0,24.0,-999,-99.99,,,-99.99,,2013-01-02 01:02:00,
2013-01-01 17:12:00,42.0,-99.9,-100.00,SE,135,19.0,24.0,-999,-99.99,,,-99.99,,2013-01-02 01:12:00,
2013-01-01 17:22:00,42.0,-99.9,-100.00,SE,135,19.0,24.0,-999,-99.99,,,-99.99,,2013-01-02 01:22:00,
2013-01-01 17:33:00,42.0,-99.9,-100.00,SE,135,17.0,23.0,-999,-99.99,,,-99.99,,2013-01-02 01:33:00,
2013-01-01 17:43:00,42.0,-99.9,-100.00,SE,135,21.0,23.0,-999,-99.99,,,-99.99,,2013-01-02 01:43:00,
2013-01-01 17:53:00,42.0,-99.9,-100.00,SE,135,21.0,23.0,-999,-99.99,,,-99.99,,2013-01-02 01:53:00,
2013-01-01 18:02:00,41.0,-99.9,-100.00,SE,135,21.0,26.0,-999,-99.99,,,-99.99,,2013-01-02 02:02:00,
2013-01-01 18:12:00,41.0,-99.9,-100.00,SE,135,22.0,28.0,-999,-99.99,,,-99.99,,2013-01-02 02:12:00,
2013-01-01 18:22:00,41.0,-99.9,-100.00,SE,135,22.0,28.0,-999,-99.99,,,-99.99,,2013-01-02 02:22:00,
2013-01-01 18:33:00,41.0,-99.9,-100.00,SE,135,23.0,29.0,-999,-99.99,,,-99.99,,2013-01-02 02:33:00,
2013-01-01 18:43:00,41.0,-99.9,-100.00,SE,135,25.0,30.0,-999,-99.99,,,-99.99,,2013-01-02 02:43:00,
2013-01-01 18:53:00,41.0,-99.9,-100.00,SE,135,25.0,30.0,-999,-99.99,,,-99.99,,2013-01-02 02:53:00,
2013-01-01 19:02:00,41.0,-99.9,-100.00,SE,135,24.0,30.0,-999,-99.99,,,-99.99,,2013-01-02 03:02:00,
2013-01-01 19:12:00,41.0,-99.9,-100.00,SE,135,26.0,31.0,-999,-99.99,,,-99.99,,2013-01-02 03:12:00,
2013-01-01 19:22:00,41.0,-99.9,-100.00,SE,135,26.0,31.0,-999,-99.99,,,-99.99,,2013-01-02 03:22:00,
2013-01-01 19:32:00,41.0,-99.9,-100.00,SE,135,26.0,31.0,-999,-99.99,,,-99.99,,2013-01-02 03:32:00,
2013-01-01 19:42:00,41.0,-99.9,-100.00,SE,135,26.0,32.0,-999,-99.99,,,-99.99,,2013-01-02 03:42:00,
2013-01-01 19:53:00,41.0,-99.9,-100.00,SE,135,26.0,32.0,-999,-99.99,,,-99.99,,2013-01-02 03:53:00,
2013-01-01 20:03:00,41.0,-99.9,-100.00,SE,135,26.0,33.0,-999,-99.99,,,-99.99,,2013-01-02 04:03:00,
2013-01-01 20:12:00,41.0,-99.9,-100.00,SE,135,22.0,33.0,-999,-99.99,,,-99.99,,2013-01-02 04:12:00,
2013-01-01 20:22:00,41.0,-99.9,-100.00,SE,135,22.0,33.0,-999,-99.99,,,-99.99,,2013-01-02 04:22:00,
2013-01-01 20:33:00,41.0,-99.9,-100.00,SE,135,22.0,30.0,-999,-99.99,,,-99.99,,2013-01-02 04:33:00,
2013-01-01 20:42:00,41.0,-99.9,-100.00,SE,135,27.0,31.0,-999,-99.99,,,-99.99,,2013-01-02 04:42:00,
2013-01-01 20:53:00,41.0,-99.9,-100.00,SE,135,27.0,31.0,-999,-99.99,,,-99.99,,2013-01-02 04:53:00,
2013-01-01 21:03:00,41.0,-99.9,-100.00,SE,135,21.0,31.0,-999,-99.99,,,-99.99,,2013-01-02 05:03:00,
2013-01-01 21:12:00,41.0,-99.9,-100.00,SE,135,22.0,30.0,-999,-99.99,,,-99.99,,2013-01-02 05:12:00,
2013-01-01 21:23:00,41.0,-99.9,-100.00,SE,135,22.0,30.0,-999,-99.99,,,-99.99,,2013-01-02 05:23:00,
2013-01-01 21:33:00,41.0,-99.9,-100.00,SE,135,22.0,29.0,-999,-99.99,,,-99.99,,2013-01-02 05:33:00,
2013-01-01 21:43:00,41.0,-99.9,-100.00,SE,135,28.0,32.0,-999,-99.99,,,-99.99,,2013-01-02 05:43:00,
2013-01-01 21:53:00,41.0,-99.9,-100.00,SE,135,28.0,32.0,-999,-99.99,,,-99.99,,2013-01-02 05:53:00,
2013-01-01 22:02:00,41.0,-99.9,-100.00,SE,135,26.0,34.0,-999,-99.99,,,-99.99,,2013-01-02 06:02:00,
2013-01-01 22:12:00,41.0,-99.9,-100.00,SE,135,29.0,34.0,-999,-99.99,,,-99.99,,2013-01-02 06:12:00,
2013-01-01 22:22:00,41.0,-99.9,-100.00,SE,135,29.0,34.0,-999,-99.99,,,-99.99,,2013-01-02 06:22:00,
2013-01-01 22:33:00,41.0,-99.9,-100.00,SE,135,26.0,35.0,-999,-99.99,,,-99.99,,2013-01-02 06:33:00,
2013-01-01 22:43:00,41.0,-99.9,-100.00,SE,135,26.0,35.0,-999,-99.99,,,-99.99,,2013-01-02 06:43:00,
2013-01-01 22:53:00,41.0,-99.9,-100.00,SE,135,26.0,35.0,-999,-99.99,,,-99.99,,2013-01-02 06:53:00,
2013-01-01 23:02:00,41.0,-99.9,-100.00,SE,135,26.0,32.0,-999,-99.99,,,-99.99,,2013-01-02 07:02:00,
2013-01-01 23:12:00,41.0,-99.9,-100.00,SE,135,25.0,34.0,-999,-99.99,,,-99.99,,2013-01-02 07:12:00,
2013-01-01 23:22:00,41.0,-99.9,-100.00,SE,135,25.0,34.0,-999,-99.99,,,-99.99,,2013-01-02 07:22:00,
2013-01-01 23:32:00,41.0,-99.9,-100.00,SE,135,19.0,34.0,-999,-99.99,,,-99.99,,2013-01-02 07:32:00,
2013-01-01 23:42:00,41.0,-99.9,-100.00,SE,135,19.0,29.0,-999,-99.99,,,-99.99,,2013-01-02 07:42:00,
2013-01-01 23:52:00,41.0,-99.9,-100.00,SE,135,20.0,26.0,-999,-99.99,,,-99.99,,2013-01-02 07:52:00,